Quincy, IL

12:21 AM CDT on September 19, 2019 (GMT -0500)
Quincy Regional-Baldwin

Weather History for KUIN - July, 2019

Change the Weather History Date:

Tuesday, July 30, 2019

  Actual Average Record
Temperature  
Mean Temperature 73 °F 76 °F  
Max Temperature 82 °F 86 °F 106 °F (1931)
Min Temperature 63 °F 66 °F 48 °F (1971)
Degree Days  
Heating Degree Days 0 0  
Month to date heating degree days 0 0  
Since 1 June heating degree days 5 16  
Since 1 July heating degree days 0 0  
Cooling Degree Days 8 11  
Month to date cooling degree days 428 330  
Year to date cooling degree days 775 643  
Since 1 June cooling degree days 665 557  
Growing Degree Days 23 (Base 50)    
Moisture  
Dew Point 61 °F    
Average Humidity 64    
Maximum Humidity 87    
Minimum Humidity 40    
Precipitation  
Precipitation 0.00 in 0.13 in 1.43 in (1958)
Month to date precipitation 1.56 3.92  
Year to date precipitation 24.96 22.00  
Sea Level Pressure  
Sea Level Pressure 30.04 in    
Wind  
Wind Speed 6 mph (NNW)    
Max Wind Speed 13 mph    
Max Gust Speed 17 mph    
Visibility 10 miles    
Events      
T = Trace of Precipitation, MM = Missing Value Source: NWS Daily Summary

Daily Weather History Graph

Daily Weather History Graph

Search for Another Location

Airport or City:

Astronomy

Jul. 30, 2019 Rise Set
Actual Time 6:01 AM CDT 8:20 PM CDT
Civil Twilight 5:30 AM CDT 8:50 PM CDT
Nautical Twilight 4:53 AM CDT 9:28 PM CDT
Astronomical Twilight 4:11 AM CDT 10:09 PM CDT
Moon 4:09 AM CDT (7/30) 7:25 PM CDT (7/30)
Length of Visible Light 15h 20m
Length of Day
14h 19m
Waning Crescent, 3% of the Moon is Illuminated
Jul 30
Waning Crescent
Jul 31
New
Aug 7
First Quarter
Aug 15
Full
Aug 23
Last Quarter

Hourly Weather History & Observations

Time (CDT) Temp. Heat Index Dew Point Humidity Pressure Visibility Wind Dir Wind Speed Gust Speed Precip Events Conditions
12:54 AM 69.1 °F - 62.1 °F 78% 29.99 in 10.0 mi North 5.8 mph - N/A   Clear
1:54 AM 66.9 °F - 61.0 °F 81% 29.98 in 10.0 mi NNW 5.8 mph - N/A   Clear
2:54 AM 66.0 °F - 61.0 °F 84% 29.99 in 10.0 mi NNW 6.9 mph - N/A   Clear
3:54 AM 66.0 °F - 61.0 °F 84% 29.99 in 10.0 mi NW 6.9 mph - N/A   Clear
4:54 AM 64.0 °F - 61.0 °F 90% 30.00 in 10.0 mi NW 5.8 mph - N/A   Clear
5:54 AM 64.0 °F - 61.0 °F 90% 30.02 in 10.0 mi NW 6.9 mph - N/A   Clear
6:54 AM 64.0 °F - 61.0 °F 90% 30.04 in 10.0 mi NW 5.8 mph - N/A   Clear
7:54 AM 68.0 °F - 62.1 °F 81% 30.05 in 10.0 mi NNW 8.1 mph - N/A   Clear
8:54 AM 71.1 °F - 62.1 °F 73% 30.06 in 10.0 mi NW 6.9 mph - N/A   Clear
9:54 AM 73.9 °F - 62.1 °F 66% 30.06 in 10.0 mi Variable 6.9 mph - N/A   Clear
10:54 AM 75.0 °F - 60.1 °F 60% 30.07 in 10.0 mi NNW 5.8 mph - N/A   Clear
11:54 AM 77.0 °F - 62.1 °F 60% 30.08 in 10.0 mi NNW 6.9 mph - N/A   Scattered Clouds
12:54 PM 78.1 °F - 61.0 °F 56% 30.08 in 10.0 mi Variable 5.8 mph - N/A   Scattered Clouds
1:54 PM 81.0 °F 81.6 °F 60.1 °F 49% 30.07 in 10.0 mi Variable 5.8 mph - N/A   Partly Cloudy
2:54 PM 81.0 °F 81.6 °F 60.1 °F 49% 30.06 in 10.0 mi NNW 5.8 mph - N/A   Scattered Clouds
3:54 PM 81.0 °F 81.1 °F 57.9 °F 45% 30.04 in 10.0 mi NW 5.8 mph - N/A   Clear
4:54 PM 82.0 °F 81.6 °F 55.9 °F 41% 30.04 in 10.0 mi NNW 5.8 mph - N/A   Clear
5:54 PM 81.0 °F 81.3 °F 59.0 °F 47% 30.02 in 10.0 mi North 6.9 mph - N/A   Clear
6:54 PM 80.1 °F 80.9 °F 60.1 °F 50% 30.03 in 10.0 mi NNW 8.1 mph - N/A   Clear
7:54 PM 75.0 °F - 62.1 °F 64% 30.04 in 10.0 mi NW 5.8 mph - N/A   Clear
8:54 PM 72.0 °F - 61.0 °F 68% 30.05 in 10.0 mi North 5.8 mph - N/A   Clear
9:54 PM 70.0 °F - 62.1 °F 76% 30.07 in 10.0 mi NNE 4.6 mph - N/A   Clear
10:54 PM 69.1 °F - 61.0 °F 75% 30.08 in 10.0 mi NNE 4.6 mph - N/A   Clear
11:54 PM 66.0 °F - 61.0 °F 84% 30.09 in 10.0 mi NNE 5.8 mph - N/A   Clear